Index of /20260430/WXO-DD/model_gdps/15km/12/216
Name Last modified Size Description
Parent Directory -
20260430T12Z_MSC_GDPS_AbsoluteVorticity_IsbL-0200_LatLon0.15_PT216H.grib2 2026-04-30 16:38 1.2M
20260430T12Z_MSC_GDPS_AbsoluteVorticity_IsbL-0250_LatLon0.15_PT216H.grib2 2026-04-30 16:38 1.3M
20260430T12Z_MSC_GDPS_AbsoluteVorticity_IsbL-0500_LatLon0.15_PT216H.grib2 2026-04-30 16:38 1.5M
20260430T12Z_MSC_GDPS_AbsoluteVorticity_IsbL-0700_LatLon0.15_PT216H.grib2 2026-04-30 16:38 1.3M
20260430T12Z_MSC_GDPS_AbsoluteVorticity_IsbL-0850_LatLon0.15_PT216H.grib2 2026-04-30 16:38 1.6M
20260430T12Z_MSC_GDPS_AirTemp-Max_AGL-2m_LatLon0.15_PT216H.grib2 2026-04-30 16:38 744K
20260430T12Z_MSC_GDPS_AirTemp-Min_AGL-2m_LatLon0.15_PT216H.grib2 2026-04-30 16:38 794K
20260430T12Z_MSC_GDPS_AirTemp_AGL-120m_LatLon0.15_PT216H.grib2 2026-04-30 16:38 907K
20260430T12Z_MSC_GDPS_AirTemp_AGL-2m_LatLon0.15_PT216H.grib2 2026-04-30 16:38 1.0M
20260430T12Z_MSC_GDPS_AirTemp_AGL-40m_LatLon0.15_PT216H.grib2 2026-04-30 16:38 809K
20260430T12Z_MSC_GDPS_AirTemp_AGL-80m_LatLon0.15_PT216H.grib2 2026-04-30 16:38 915K
20260430T12Z_MSC_GDPS_AirTemp_IsbL-0001_LatLon0.15_PT216H.grib2 2026-04-30 16:38 659K
20260430T12Z_MSC_GDPS_AirTemp_IsbL-0005_LatLon0.15_PT216H.grib2 2026-04-30 16:38 535K
20260430T12Z_MSC_GDPS_AirTemp_IsbL-0010_LatLon0.15_PT216H.grib2 2026-04-30 16:38 696K
20260430T12Z_MSC_GDPS_AirTemp_IsbL-0020_LatLon0.15_PT216H.grib2 2026-04-30 16:38 790K
20260430T12Z_MSC_GDPS_AirTemp_IsbL-0030_LatLon0.15_PT216H.grib2 2026-04-30 16:38 837K
20260430T12Z_MSC_GDPS_AirTemp_IsbL-0050_LatLon0.15_PT216H.grib2 2026-04-30 16:38 804K
20260430T12Z_MSC_GDPS_AirTemp_IsbL-0100_LatLon0.15_PT216H.grib2 2026-04-30 16:38 968K
20260430T12Z_MSC_GDPS_AirTemp_IsbL-0150_LatLon0.15_PT216H.grib2 2026-04-30 16:38 1.0M
20260430T12Z_MSC_GDPS_AirTemp_IsbL-0175_LatLon0.15_PT216H.grib2 2026-04-30 16:38 950K
20260430T12Z_MSC_GDPS_AirTemp_IsbL-0200_LatLon0.15_PT216H.grib2 2026-04-30 16:38 961K
20260430T12Z_MSC_GDPS_AirTemp_IsbL-0225_LatLon0.15_PT216H.grib2 2026-04-30 16:38 964K
20260430T12Z_MSC_GDPS_AirTemp_IsbL-0250_LatLon0.15_PT216H.grib2 2026-04-30 16:38 1.0M
20260430T12Z_MSC_GDPS_AirTemp_IsbL-0275_LatLon0.15_PT216H.grib2 2026-04-30 16:38 1.0M
20260430T12Z_MSC_GDPS_AirTemp_IsbL-0300_LatLon0.15_PT216H.grib2 2026-04-30 16:38 945K
20260430T12Z_MSC_GDPS_AirTemp_IsbL-0350_LatLon0.15_PT216H.grib2 2026-04-30 16:38 931K
20260430T12Z_MSC_GDPS_AirTemp_IsbL-0400_LatLon0.15_PT216H.grib2 2026-04-30 16:38 943K
20260430T12Z_MSC_GDPS_AirTemp_IsbL-0450_LatLon0.15_PT216H.grib2 2026-04-30 16:38 969K
20260430T12Z_MSC_GDPS_AirTemp_IsbL-0500_LatLon0.15_PT216H.grib2 2026-04-30 16:38 1.0M
20260430T12Z_MSC_GDPS_AirTemp_IsbL-0550_LatLon0.15_PT216H.grib2 2026-04-30 16:38 805K
20260430T12Z_MSC_GDPS_AirTemp_IsbL-0600_LatLon0.15_PT216H.grib2 2026-04-30 16:38 898K
20260430T12Z_MSC_GDPS_AirTemp_IsbL-0650_LatLon0.15_PT216H.grib2 2026-04-30 16:38 928K
20260430T12Z_MSC_GDPS_AirTemp_IsbL-0700_LatLon0.15_PT216H.grib2 2026-04-30 16:38 961K
20260430T12Z_MSC_GDPS_AirTemp_IsbL-0750_LatLon0.15_PT216H.grib2 2026-04-30 16:38 1.0M
20260430T12Z_MSC_GDPS_AirTemp_IsbL-0800_LatLon0.15_PT216H.grib2 2026-04-30 16:38 1.1M
20260430T12Z_MSC_GDPS_AirTemp_IsbL-0850_LatLon0.15_PT216H.grib2 2026-04-30 16:38 1.1M
20260430T12Z_MSC_GDPS_AirTemp_IsbL-0875_LatLon0.15_PT216H.grib2 2026-04-30 16:38 1.2M
20260430T12Z_MSC_GDPS_AirTemp_IsbL-0900_LatLon0.15_PT216H.grib2 2026-04-30 16:38 1.2M
20260430T12Z_MSC_GDPS_AirTemp_IsbL-0925_LatLon0.15_PT216H.grib2 2026-04-30 16:38 1.1M
20260430T12Z_MSC_GDPS_AirTemp_IsbL-0950_LatLon0.15_PT216H.grib2 2026-04-30 16:38 1.1M
20260430T12Z_MSC_GDPS_AirTemp_IsbL-0970_LatLon0.15_PT216H.grib2 2026-04-30 16:38 1.2M
20260430T12Z_MSC_GDPS_AirTemp_IsbL-0985_LatLon0.15_PT216H.grib2 2026-04-30 16:38 1.1M
20260430T12Z_MSC_GDPS_AirTemp_IsbL-1000_LatLon0.15_PT216H.grib2 2026-04-30 16:38 1.1M
20260430T12Z_MSC_GDPS_AirTemp_IsbL-1015_LatLon0.15_PT216H.grib2 2026-04-30 16:38 1.1M
20260430T12Z_MSC_GDPS_Albedo_Sfc_LatLon0.15_PT216H.grib2 2026-04-30 16:38 240K
20260430T12Z_MSC_GDPS_CAPE_Sfc_LatLon0.15_PT216H.grib2 2026-04-30 16:38 4.1M
20260430T12Z_MSC_GDPS_CIN_Sfc_LatLon0.15_PT216H.grib2 2026-04-30 16:38 2.9M
20260430T12Z_MSC_GDPS_CloudWater_EAtm_LatLon0.15_PT216H.grib2 2026-04-30 16:38 544K
20260430T12Z_MSC_GDPS_ConvectivePrecip-Accum_Sfc_LatLon0.15_PT216H.grib2 2026-04-30 16:38 3.7M
20260430T12Z_MSC_GDPS_DewPointDepression_AGL-2m_LatLon0.15_PT216H.grib2 2026-04-30 16:38 759K
20260430T12Z_MSC_GDPS_DewPointDepression_IsbL-0010_LatLon0.15_PT216H.grib2 2026-04-30 16:38 77K
20260430T12Z_MSC_GDPS_DewPointDepression_IsbL-0020_LatLon0.15_PT216H.grib2 2026-04-30 16:38 77K
20260430T12Z_MSC_GDPS_DewPointDepression_IsbL-0030_LatLon0.15_PT216H.grib2 2026-04-30 16:38 89K
20260430T12Z_MSC_GDPS_DewPointDepression_IsbL-0050_LatLon0.15_PT216H.grib2 2026-04-30 16:38 383K
20260430T12Z_MSC_GDPS_DewPointDepression_IsbL-0100_LatLon0.15_PT216H.grib2 2026-04-30 16:38 399K
20260430T12Z_MSC_GDPS_DewPointDepression_IsbL-0150_LatLon0.15_PT216H.grib2 2026-04-30 16:38 495K
20260430T12Z_MSC_GDPS_DewPointDepression_IsbL-0175_LatLon0.15_PT216H.grib2 2026-04-30 16:38 583K
20260430T12Z_MSC_GDPS_DewPointDepression_IsbL-0200_LatLon0.15_PT216H.grib2 2026-04-30 16:38 683K
20260430T12Z_MSC_GDPS_DewPointDepression_IsbL-0225_LatLon0.15_PT216H.grib2 2026-04-30 16:38 774K
20260430T12Z_MSC_GDPS_DewPointDepression_IsbL-0250_LatLon0.15_PT216H.grib2 2026-04-30 16:38 867K
20260430T12Z_MSC_GDPS_DewPointDepression_IsbL-0275_LatLon0.15_PT216H.grib2 2026-04-30 16:38 892K
20260430T12Z_MSC_GDPS_DewPointDepression_IsbL-0300_LatLon0.15_PT216H.grib2 2026-04-30 16:38 938K
20260430T12Z_MSC_GDPS_DewPointDepression_IsbL-0350_LatLon0.15_PT216H.grib2 2026-04-30 16:38 965K
20260430T12Z_MSC_GDPS_DewPointDepression_IsbL-0400_LatLon0.15_PT216H.grib2 2026-04-30 16:38 1.0M
20260430T12Z_MSC_GDPS_DewPointDepression_IsbL-0450_LatLon0.15_PT216H.grib2 2026-04-30 16:38 1.0M
20260430T12Z_MSC_GDPS_DewPointDepression_IsbL-0500_LatLon0.15_PT216H.grib2 2026-04-30 16:38 1.0M
20260430T12Z_MSC_GDPS_DewPointDepression_IsbL-0550_LatLon0.15_PT216H.grib2 2026-04-30 16:38 1.0M
20260430T12Z_MSC_GDPS_DewPointDepression_IsbL-0600_LatLon0.15_PT216H.grib2 2026-04-30 16:38 1.1M
20260430T12Z_MSC_GDPS_DewPointDepression_IsbL-0650_LatLon0.15_PT216H.grib2 2026-04-30 16:38 1.1M
20260430T12Z_MSC_GDPS_DewPointDepression_IsbL-0700_LatLon0.15_PT216H.grib2 2026-04-30 16:38 1.1M
20260430T12Z_MSC_GDPS_DewPointDepression_IsbL-0750_LatLon0.15_PT216H.grib2 2026-04-30 16:38 1.1M
20260430T12Z_MSC_GDPS_DewPointDepression_IsbL-0800_LatLon0.15_PT216H.grib2 2026-04-30 16:38 1.2M
20260430T12Z_MSC_GDPS_DewPointDepression_IsbL-0850_LatLon0.15_PT216H.grib2 2026-04-30 16:38 1.2M
20260430T12Z_MSC_GDPS_DewPointDepression_IsbL-0875_LatLon0.15_PT216H.grib2 2026-04-30 16:38 1.1M
20260430T12Z_MSC_GDPS_DewPointDepression_IsbL-0900_LatLon0.15_PT216H.grib2 2026-04-30 16:38 1.1M
20260430T12Z_MSC_GDPS_DewPointDepression_IsbL-0925_LatLon0.15_PT216H.grib2 2026-04-30 16:38 1.0M
20260430T12Z_MSC_GDPS_DewPointDepression_IsbL-0950_LatLon0.15_PT216H.grib2 2026-04-30 16:38 1.0M
20260430T12Z_MSC_GDPS_DewPointDepression_IsbL-0970_LatLon0.15_PT216H.grib2 2026-04-30 16:38 1.0M
20260430T12Z_MSC_GDPS_DewPointDepression_IsbL-0985_LatLon0.15_PT216H.grib2 2026-04-30 16:38 1.0M
20260430T12Z_MSC_GDPS_DewPointDepression_IsbL-1000_LatLon0.15_PT216H.grib2 2026-04-30 16:38 970K
20260430T12Z_MSC_GDPS_DewPointDepression_IsbL-1015_LatLon0.15_PT216H.grib2 2026-04-30 16:38 913K
20260430T12Z_MSC_GDPS_DewPoint_AGL-2m_LatLon0.15_PT216H.grib2 2026-04-30 16:38 614K
20260430T12Z_MSC_GDPS_DownwardLongwaveRadiationFlux-Accum_Sfc_LatLon0.15_PT216H.grib2 2026-04-30 16:38 726K
20260430T12Z_MSC_GDPS_DownwardShortwaveRadiationFlux-Accum_NTAtm_LatLon0.15_PT216H.grib2 2026-04-30 16:38 226K
20260430T12Z_MSC_GDPS_DownwardShortwaveRadiationFlux-Accum_Sfc_LatLon0.15_PT216H.grib2 2026-04-30 16:38 897K
20260430T12Z_MSC_GDPS_FreezingRain-Accum12h_Sfc_LatLon0.15_PT216H.grib2 2026-04-30 16:38 72K
20260430T12Z_MSC_GDPS_FreezingRain-Accum24h_Sfc_LatLon0.15_PT216H.grib2 2026-04-30 16:38 105K
20260430T12Z_MSC_GDPS_FreezingRain-Accum6h_Sfc_LatLon0.15_PT216H.grib2 2026-04-30 16:38 56K
20260430T12Z_MSC_GDPS_FreezingRain-Accum_Sfc_LatLon0.15_PT216H.grib2 2026-04-30 16:38 452K
20260430T12Z_MSC_GDPS_GeopotentialHeight_IsbL-0001_LatLon0.15_PT216H.grib2 2026-04-30 16:38 442K
20260430T12Z_MSC_GDPS_GeopotentialHeight_IsbL-0005_LatLon0.15_PT216H.grib2 2026-04-30 16:38 482K
20260430T12Z_MSC_GDPS_GeopotentialHeight_IsbL-0010_LatLon0.15_PT216H.grib2 2026-04-30 16:38 474K
20260430T12Z_MSC_GDPS_GeopotentialHeight_IsbL-0020_LatLon0.15_PT216H.grib2 2026-04-30 16:38 463K
20260430T12Z_MSC_GDPS_GeopotentialHeight_IsbL-0030_LatLon0.15_PT216H.grib2 2026-04-30 16:38 421K
20260430T12Z_MSC_GDPS_GeopotentialHeight_IsbL-0050_LatLon0.15_PT216H.grib2 2026-04-30 16:38 574K
20260430T12Z_MSC_GDPS_GeopotentialHeight_IsbL-0100_LatLon0.15_PT216H.grib2 2026-04-30 16:38 611K
20260430T12Z_MSC_GDPS_GeopotentialHeight_IsbL-0150_LatLon0.15_PT216H.grib2 2026-04-30 16:38 632K
20260430T12Z_MSC_GDPS_GeopotentialHeight_IsbL-0175_LatLon0.15_PT216H.grib2 2026-04-30 16:38 636K
20260430T12Z_MSC_GDPS_GeopotentialHeight_IsbL-0200_LatLon0.15_PT216H.grib2 2026-04-30 16:38 642K
20260430T12Z_MSC_GDPS_GeopotentialHeight_IsbL-0225_LatLon0.15_PT216H.grib2 2026-04-30 16:38 646K
20260430T12Z_MSC_GDPS_GeopotentialHeight_IsbL-0250_LatLon0.15_PT216H.grib2 2026-04-30 16:38 650K
20260430T12Z_MSC_GDPS_GeopotentialHeight_IsbL-0275_LatLon0.15_PT216H.grib2 2026-04-30 16:38 648K
20260430T12Z_MSC_GDPS_GeopotentialHeight_IsbL-0300_LatLon0.15_PT216H.grib2 2026-04-30 16:38 640K
20260430T12Z_MSC_GDPS_GeopotentialHeight_IsbL-0350_LatLon0.15_PT216H.grib2 2026-04-30 16:38 635K
20260430T12Z_MSC_GDPS_GeopotentialHeight_IsbL-0400_LatLon0.15_PT216H.grib2 2026-04-30 16:38 627K
20260430T12Z_MSC_GDPS_GeopotentialHeight_IsbL-0450_LatLon0.15_PT216H.grib2 2026-04-30 16:38 616K
20260430T12Z_MSC_GDPS_GeopotentialHeight_IsbL-0500_LatLon0.15_PT216H.grib2 2026-04-30 16:38 600K
20260430T12Z_MSC_GDPS_GeopotentialHeight_IsbL-0550_LatLon0.15_PT216H.grib2 2026-04-30 16:38 530K
20260430T12Z_MSC_GDPS_GeopotentialHeight_IsbL-0600_LatLon0.15_PT216H.grib2 2026-04-30 16:38 525K
20260430T12Z_MSC_GDPS_GeopotentialHeight_IsbL-0650_LatLon0.15_PT216H.grib2 2026-04-30 16:38 525K
20260430T12Z_MSC_GDPS_GeopotentialHeight_IsbL-0700_LatLon0.15_PT216H.grib2 2026-04-30 16:38 697K
20260430T12Z_MSC_GDPS_GeopotentialHeight_IsbL-0750_LatLon0.15_PT216H.grib2 2026-04-30 16:38 696K
20260430T12Z_MSC_GDPS_GeopotentialHeight_IsbL-0800_LatLon0.15_PT216H.grib2 2026-04-30 16:38 710K
20260430T12Z_MSC_GDPS_GeopotentialHeight_IsbL-0850_LatLon0.15_PT216H.grib2 2026-04-30 16:38 716K
20260430T12Z_MSC_GDPS_GeopotentialHeight_IsbL-0875_LatLon0.15_PT216H.grib2 2026-04-30 16:38 725K
20260430T12Z_MSC_GDPS_GeopotentialHeight_IsbL-0900_LatLon0.15_PT216H.grib2 2026-04-30 16:38 729K
20260430T12Z_MSC_GDPS_GeopotentialHeight_IsbL-0925_LatLon0.15_PT216H.grib2 2026-04-30 16:38 734K
20260430T12Z_MSC_GDPS_GeopotentialHeight_IsbL-0950_LatLon0.15_PT216H.grib2 2026-04-30 16:38 744K
20260430T12Z_MSC_GDPS_GeopotentialHeight_IsbL-0970_LatLon0.15_PT216H.grib2 2026-04-30 16:38 754K
20260430T12Z_MSC_GDPS_GeopotentialHeight_IsbL-0985_LatLon0.15_PT216H.grib2 2026-04-30 16:38 769K
20260430T12Z_MSC_GDPS_GeopotentialHeight_IsbL-1000_LatLon0.15_PT216H.grib2 2026-04-30 16:38 790K
20260430T12Z_MSC_GDPS_GeopotentialHeight_IsbL-1015_LatLon0.15_PT216H.grib2 2026-04-30 16:38 808K
20260430T12Z_MSC_GDPS_Humidex_Sfc_LatLon0.15_PT216H.grib2 2026-04-30 16:38 5.3M
20260430T12Z_MSC_GDPS_IcePellets-Accum12h_Sfc_LatLon0.15_PT216H.grib2 2026-04-30 16:38 30K
20260430T12Z_MSC_GDPS_IcePellets-Accum24h_Sfc_LatLon0.15_PT216H.grib2 2026-04-30 16:38 36K
20260430T12Z_MSC_GDPS_IcePellets-Accum6h_Sfc_LatLon0.15_PT216H.grib2 2026-04-30 16:38 25K
20260430T12Z_MSC_GDPS_IcePellets-Accum_Sfc_LatLon0.15_PT216H.grib2 2026-04-30 16:38 174K
20260430T12Z_MSC_GDPS_KIndex_Sfc_LatLon0.15_PT216H.grib2 2026-04-30 16:38 6.5M
20260430T12Z_MSC_GDPS_LatentHeatNetFlux_Sfc_LatLon0.15_PT216H.grib2 2026-04-30 16:38 731K
20260430T12Z_MSC_GDPS_LiftedIndex-MU-VT_IsbL-0500_LatLon0.15_PT216H.grib2 2026-04-30 16:38 5.4M
20260430T12Z_MSC_GDPS_NetLongwaveRadiationFlux-Accum_Sfc_LatLon0.15_PT216H.grib2 2026-04-30 16:38 920K
20260430T12Z_MSC_GDPS_NetShortwaveRadiationFlux-Accum_Sfc_LatLon0.15_PT216H.grib2 2026-04-30 16:38 876K
20260430T12Z_MSC_GDPS_O3MixingRatio_Sfc_LatLon0.15_PT216H.grib2 2026-04-30 16:46 1.9M
20260430T12Z_MSC_GDPS_O3_EAtm_LatLon0.15_PT216H.grib2 2026-04-30 16:46 2.4M
20260430T12Z_MSC_GDPS_PlanetaryBoundaryLayerHeight_Sfc_LatLon0.15_PT216H.grib2 2026-04-30 16:38 2.5M
20260430T12Z_MSC_GDPS_Precip-Accum12h_Sfc_LatLon0.15_PT216H.grib2 2026-04-30 16:38 4.1M
20260430T12Z_MSC_GDPS_Precip-Accum24h_Sfc_LatLon0.15_PT216H.grib2 2026-04-30 16:38 4.6M
20260430T12Z_MSC_GDPS_Precip-Accum6h_Sfc_LatLon0.15_PT216H.grib2 2026-04-30 16:38 3.9M
20260430T12Z_MSC_GDPS_Precip-Accum_Sfc_LatLon0.15_PT216H.grib2 2026-04-30 16:38 5.5M
20260430T12Z_MSC_GDPS_PrecipRate_Sfc_LatLon0.15_PT216H.grib2 2026-04-30 16:38 3.0M
20260430T12Z_MSC_GDPS_PrecipType-Instant_Sfc_LatLon0.15_PT216H.grib2 2026-04-30 16:38 1.6M
20260430T12Z_MSC_GDPS_Pressure_MSL_LatLon0.15_PT216H.grib2 2026-04-30 16:38 726K
20260430T12Z_MSC_GDPS_Pressure_PVU-1.5_LatLon0.15_PT216H.grib2 2026-04-30 16:38 5.8M
20260430T12Z_MSC_GDPS_Pressure_PVU-1_LatLon0.15_PT216H.grib2 2026-04-30 16:38 6.0M
20260430T12Z_MSC_GDPS_Pressure_PVU-2_LatLon0.15_PT216H.grib2 2026-04-30 16:38 6.0M
20260430T12Z_MSC_GDPS_Pressure_Sfc_LatLon0.15_PT216H.grib2 2026-04-30 16:38 1.1M
20260430T12Z_MSC_GDPS_RadiativeTemp_Sfc_LatLon0.15_PT216H.grib2 2026-04-30 16:38 505K
20260430T12Z_MSC_GDPS_Rain-Accum12h_Sfc_LatLon0.15_PT216H.grib2 2026-04-30 16:38 2.7M
20260430T12Z_MSC_GDPS_Rain-Accum24h_Sfc_LatLon0.15_PT216H.grib2 2026-04-30 16:38 3.2M
20260430T12Z_MSC_GDPS_Rain-Accum6h_Sfc_LatLon0.15_PT216H.grib2 2026-04-30 16:38 2.5M
20260430T12Z_MSC_GDPS_Rain-Accum_Sfc_LatLon0.15_PT216H.grib2 2026-04-30 16:38 4.3M
20260430T12Z_MSC_GDPS_RelativeHumidity_AGL-2m_LatLon0.15_PT216H.grib2 2026-04-30 16:38 1.0M
20260430T12Z_MSC_GDPS_RelativeHumidity_IsbL-0010_LatLon0.15_PT216H.grib2 2026-04-30 16:38 133K
20260430T12Z_MSC_GDPS_RelativeHumidity_IsbL-0020_LatLon0.15_PT216H.grib2 2026-04-30 16:38 156K
20260430T12Z_MSC_GDPS_RelativeHumidity_IsbL-0030_LatLon0.15_PT216H.grib2 2026-04-30 16:38 183K
20260430T12Z_MSC_GDPS_RelativeHumidity_IsbL-0050_LatLon0.15_PT216H.grib2 2026-04-30 16:38 331K
20260430T12Z_MSC_GDPS_RelativeHumidity_IsbL-0100_LatLon0.15_PT216H.grib2 2026-04-30 16:38 496K
20260430T12Z_MSC_GDPS_RelativeHumidity_IsbL-0150_LatLon0.15_PT216H.grib2 2026-04-30 16:38 681K
20260430T12Z_MSC_GDPS_RelativeHumidity_IsbL-0175_LatLon0.15_PT216H.grib2 2026-04-30 16:38 793K
20260430T12Z_MSC_GDPS_RelativeHumidity_IsbL-0200_LatLon0.15_PT216H.grib2 2026-04-30 16:38 710K
20260430T12Z_MSC_GDPS_RelativeHumidity_IsbL-0225_LatLon0.15_PT216H.grib2 2026-04-30 16:38 794K
20260430T12Z_MSC_GDPS_RelativeHumidity_IsbL-0250_LatLon0.15_PT216H.grib2 2026-04-30 16:38 870K
20260430T12Z_MSC_GDPS_RelativeHumidity_IsbL-0275_LatLon0.15_PT216H.grib2 2026-04-30 16:38 896K
20260430T12Z_MSC_GDPS_RelativeHumidity_IsbL-0300_LatLon0.15_PT216H.grib2 2026-04-30 16:38 940K
20260430T12Z_MSC_GDPS_RelativeHumidity_IsbL-0350_LatLon0.15_PT216H.grib2 2026-04-30 16:38 955K
20260430T12Z_MSC_GDPS_RelativeHumidity_IsbL-0400_LatLon0.15_PT216H.grib2 2026-04-30 16:38 1.0M
20260430T12Z_MSC_GDPS_RelativeHumidity_IsbL-0450_LatLon0.15_PT216H.grib2 2026-04-30 16:38 1.0M
20260430T12Z_MSC_GDPS_RelativeHumidity_IsbL-0500_LatLon0.15_PT216H.grib2 2026-04-30 16:38 1.0M
20260430T12Z_MSC_GDPS_RelativeHumidity_IsbL-0550_LatLon0.15_PT216H.grib2 2026-04-30 16:38 1.0M
20260430T12Z_MSC_GDPS_RelativeHumidity_IsbL-0600_LatLon0.15_PT216H.grib2 2026-04-30 16:38 1.1M
20260430T12Z_MSC_GDPS_RelativeHumidity_IsbL-0650_LatLon0.15_PT216H.grib2 2026-04-30 16:38 1.1M
20260430T12Z_MSC_GDPS_RelativeHumidity_IsbL-0700_LatLon0.15_PT216H.grib2 2026-04-30 16:38 1.1M
20260430T12Z_MSC_GDPS_RelativeHumidity_IsbL-0750_LatLon0.15_PT216H.grib2 2026-04-30 16:38 1.1M
20260430T12Z_MSC_GDPS_RelativeHumidity_IsbL-0800_LatLon0.15_PT216H.grib2 2026-04-30 16:38 1.3M
20260430T12Z_MSC_GDPS_RelativeHumidity_IsbL-0850_LatLon0.15_PT216H.grib2 2026-04-30 16:38 1.3M
20260430T12Z_MSC_GDPS_RelativeHumidity_IsbL-0875_LatLon0.15_PT216H.grib2 2026-04-30 16:38 1.3M
20260430T12Z_MSC_GDPS_RelativeHumidity_IsbL-0900_LatLon0.15_PT216H.grib2 2026-04-30 16:38 1.2M
20260430T12Z_MSC_GDPS_RelativeHumidity_IsbL-0925_LatLon0.15_PT216H.grib2 2026-04-30 16:38 1.2M
20260430T12Z_MSC_GDPS_RelativeHumidity_IsbL-0950_LatLon0.15_PT216H.grib2 2026-04-30 16:38 1.2M
20260430T12Z_MSC_GDPS_RelativeHumidity_IsbL-0970_LatLon0.15_PT216H.grib2 2026-04-30 16:38 1.2M
20260430T12Z_MSC_GDPS_RelativeHumidity_IsbL-0985_LatLon0.15_PT216H.grib2 2026-04-30 16:38 1.1M
20260430T12Z_MSC_GDPS_RelativeHumidity_IsbL-1000_LatLon0.15_PT216H.grib2 2026-04-30 16:38 1.1M
20260430T12Z_MSC_GDPS_RelativeHumidity_IsbL-1015_LatLon0.15_PT216H.grib2 2026-04-30 16:38 1.0M
20260430T12Z_MSC_GDPS_RelativeVorticity_IsbL-0200_LatLon0.15_PT216H.grib2 2026-04-30 16:38 1.2M
20260430T12Z_MSC_GDPS_RelativeVorticity_IsbL-0250_LatLon0.15_PT216H.grib2 2026-04-30 16:38 1.3M
20260430T12Z_MSC_GDPS_RelativeVorticity_IsbL-0500_LatLon0.15_PT216H.grib2 2026-04-30 16:38 1.5M
20260430T12Z_MSC_GDPS_RelativeVorticity_IsbL-0700_LatLon0.15_PT216H.grib2 2026-04-30 16:38 1.3M
20260430T12Z_MSC_GDPS_RelativeVorticity_IsbL-0850_LatLon0.15_PT216H.grib2 2026-04-30 16:38 1.6M
20260430T12Z_MSC_GDPS_Runoff-Accum_Sfc_LatLon0.15_PT216H.grib2 2026-04-30 16:38 136K
20260430T12Z_MSC_GDPS_SensibleHeatNetFlux_Sfc_LatLon0.15_PT216H.grib2 2026-04-30 16:38 489K
20260430T12Z_MSC_GDPS_ShowalterIndex_IsbL-0500_LatLon0.15_PT216H.grib2 2026-04-30 16:38 6.2M
20260430T12Z_MSC_GDPS_Snow-Accum12h_Sfc_LatLon0.15_PT216H.grib2 2026-04-30 16:38 1.3M
20260430T12Z_MSC_GDPS_Snow-Accum24h_Sfc_LatLon0.15_PT216H.grib2 2026-04-30 16:38 1.5M
20260430T12Z_MSC_GDPS_Snow-Accum6h_Sfc_LatLon0.15_PT216H.grib2 2026-04-30 16:38 1.2M
20260430T12Z_MSC_GDPS_Snow-Accum_Sfc_LatLon0.15_PT216H.grib2 2026-04-30 16:38 2.1M
20260430T12Z_MSC_GDPS_SnowDensity_Sfc_LatLon0.15_PT216H.grib2 2026-04-30 16:38 258K
20260430T12Z_MSC_GDPS_SnowDepth_Sfc_LatLon0.15_PT216H.grib2 2026-04-30 16:38 1.7M
20260430T12Z_MSC_GDPS_SoilTemp_DBS-0to10cm_LatLon0.15_PT216H.grib2 2026-04-30 16:38 516K
20260430T12Z_MSC_GDPS_SoilTemp_Sfc_LatLon0.15_PT216H.grib2 2026-04-30 16:38 579K
20260430T12Z_MSC_GDPS_SoilVolumetricIceContent_Sfc_LatLon0.15_PT216H.grib2 2026-04-30 16:38 180K
20260430T12Z_MSC_GDPS_SoilVolumetricWaterContent_DBS-0to10cm_LatLon0.15_PT216H.grib2 2026-04-30 16:38 596K
20260430T12Z_MSC_GDPS_SoilVolumetricWaterContent_DBS-0to1cm_LatLon0.15_PT216H.grib2 2026-04-30 16:38 646K
20260430T12Z_MSC_GDPS_SpecificHumidity_AGL-120m_LatLon0.15_PT216H.grib2 2026-04-30 16:38 1.1M
20260430T12Z_MSC_GDPS_SpecificHumidity_AGL-2m_LatLon0.15_PT216H.grib2 2026-04-30 16:38 1.2M
20260430T12Z_MSC_GDPS_SpecificHumidity_AGL-40m_LatLon0.15_PT216H.grib2 2026-04-30 16:38 1.1M
20260430T12Z_MSC_GDPS_SpecificHumidity_AGL-80m_LatLon0.15_PT216H.grib2 2026-04-30 16:38 1.1M
20260430T12Z_MSC_GDPS_SpecificHumidity_IsbL-0001_LatLon0.15_PT216H.grib2 2026-04-30 16:38 1.1M
20260430T12Z_MSC_GDPS_SpecificHumidity_IsbL-0005_LatLon0.15_PT216H.grib2 2026-04-30 16:38 1.0M
20260430T12Z_MSC_GDPS_SpecificHumidity_IsbL-0010_LatLon0.15_PT216H.grib2 2026-04-30 16:38 1.1M
20260430T12Z_MSC_GDPS_SpecificHumidity_IsbL-0020_LatLon0.15_PT216H.grib2 2026-04-30 16:38 1.2M
20260430T12Z_MSC_GDPS_SpecificHumidity_IsbL-0030_LatLon0.15_PT216H.grib2 2026-04-30 16:38 1.4M
20260430T12Z_MSC_GDPS_SpecificHumidity_IsbL-0050_LatLon0.15_PT216H.grib2 2026-04-30 16:38 1.5M
20260430T12Z_MSC_GDPS_SpecificHumidity_IsbL-0100_LatLon0.15_PT216H.grib2 2026-04-30 16:38 1.2M
20260430T12Z_MSC_GDPS_SpecificHumidity_IsbL-0150_LatLon0.15_PT216H.grib2 2026-04-30 16:38 1.3M
20260430T12Z_MSC_GDPS_SpecificHumidity_IsbL-0175_LatLon0.15_PT216H.grib2 2026-04-30 16:38 1.3M
20260430T12Z_MSC_GDPS_SpecificHumidity_IsbL-0200_LatLon0.15_PT216H.grib2 2026-04-30 16:38 1.3M
20260430T12Z_MSC_GDPS_SpecificHumidity_IsbL-0225_LatLon0.15_PT216H.grib2 2026-04-30 16:38 1.3M
20260430T12Z_MSC_GDPS_SpecificHumidity_IsbL-0250_LatLon0.15_PT216H.grib2 2026-04-30 16:38 1.2M
20260430T12Z_MSC_GDPS_SpecificHumidity_IsbL-0275_LatLon0.15_PT216H.grib2 2026-04-30 16:38 1.4M
20260430T12Z_MSC_GDPS_SpecificHumidity_IsbL-0300_LatLon0.15_PT216H.grib2 2026-04-30 16:38 1.3M
20260430T12Z_MSC_GDPS_SpecificHumidity_IsbL-0350_LatLon0.15_PT216H.grib2 2026-04-30 16:38 1.2M
20260430T12Z_MSC_GDPS_SpecificHumidity_IsbL-0400_LatLon0.15_PT216H.grib2 2026-04-30 16:38 1.4M
20260430T12Z_MSC_GDPS_SpecificHumidity_IsbL-0450_LatLon0.15_PT216H.grib2 2026-04-30 16:38 1.3M
20260430T12Z_MSC_GDPS_SpecificHumidity_IsbL-0500_LatLon0.15_PT216H.grib2 2026-04-30 16:38 1.5M
20260430T12Z_MSC_GDPS_SpecificHumidity_IsbL-0550_LatLon0.15_PT216H.grib2 2026-04-30 16:38 1.6M
20260430T12Z_MSC_GDPS_SpecificHumidity_IsbL-0600_LatLon0.15_PT216H.grib2 2026-04-30 16:38 1.4M
20260430T12Z_MSC_GDPS_SpecificHumidity_IsbL-0650_LatLon0.15_PT216H.grib2 2026-04-30 16:38 1.5M
20260430T12Z_MSC_GDPS_SpecificHumidity_IsbL-0700_LatLon0.15_PT216H.grib2 2026-04-30 16:38 1.6M
20260430T12Z_MSC_GDPS_SpecificHumidity_IsbL-0750_LatLon0.15_PT216H.grib2 2026-04-30 16:38 1.8M
20260430T12Z_MSC_GDPS_SpecificHumidity_IsbL-0800_LatLon0.15_PT216H.grib2 2026-04-30 16:38 1.9M
20260430T12Z_MSC_GDPS_SpecificHumidity_IsbL-0850_LatLon0.15_PT216H.grib2 2026-04-30 16:38 2.0M
20260430T12Z_MSC_GDPS_SpecificHumidity_IsbL-0875_LatLon0.15_PT216H.grib2 2026-04-30 16:38 2.0M
20260430T12Z_MSC_GDPS_SpecificHumidity_IsbL-0900_LatLon0.15_PT216H.grib2 2026-04-30 16:38 1.6M
20260430T12Z_MSC_GDPS_SpecificHumidity_IsbL-0925_LatLon0.15_PT216H.grib2 2026-04-30 16:38 1.6M
20260430T12Z_MSC_GDPS_SpecificHumidity_IsbL-0950_LatLon0.15_PT216H.grib2 2026-04-30 16:38 1.6M
20260430T12Z_MSC_GDPS_SpecificHumidity_IsbL-0970_LatLon0.15_PT216H.grib2 2026-04-30 16:38 1.6M
20260430T12Z_MSC_GDPS_SpecificHumidity_IsbL-0985_LatLon0.15_PT216H.grib2 2026-04-30 16:38 1.6M
20260430T12Z_MSC_GDPS_SpecificHumidity_IsbL-1000_LatLon0.15_PT216H.grib2 2026-04-30 16:38 1.5M
20260430T12Z_MSC_GDPS_SpecificHumidity_IsbL-1015_LatLon0.15_PT216H.grib2 2026-04-30 16:38 1.5M
20260430T12Z_MSC_GDPS_SpecificHumidity_Sfc_LatLon0.15_PT216H.grib2 2026-04-30 16:38 690K
20260430T12Z_MSC_GDPS_Thickness_IsbL-0850to0700_LatLon0.15_PT216H.grib2 2026-04-30 16:38 470K
20260430T12Z_MSC_GDPS_Thickness_IsbL-1000to0500_LatLon0.15_PT216H.grib2 2026-04-30 16:38 374K
20260430T12Z_MSC_GDPS_Thickness_IsbL-1000to0850_LatLon0.15_PT216H.grib2 2026-04-30 16:38 490K
20260430T12Z_MSC_GDPS_TotalCloudCover_Sfc_LatLon0.15_PT216H.grib2 2026-04-30 16:38 847K
20260430T12Z_MSC_GDPS_TotalTotalsIndex_Sfc_LatLon0.15_PT216H.grib2 2026-04-30 16:38 6.2M
20260430T12Z_MSC_GDPS_UVIndex-ClearSky_Sfc_LatLon0.15_PT216H.grib2 2026-04-30 16:46 1.0M
20260430T12Z_MSC_GDPS_UVIndex_Sfc_LatLon0.15_PT216H.grib2 2026-04-30 16:46 1.5M
20260430T12Z_MSC_GDPS_UpwardLongwaveRadiationFlux_NTAtm_LatLon0.15_PT216H.grib2 2026-04-30 16:38 849K
20260430T12Z_MSC_GDPS_VerticalVelocity_IsbL-0200_LatLon0.15_PT216H.grib2 2026-04-30 16:38 1.0M
20260430T12Z_MSC_GDPS_VerticalVelocity_IsbL-0250_LatLon0.15_PT216H.grib2 2026-04-30 16:38 843K
20260430T12Z_MSC_GDPS_VerticalVelocity_IsbL-0500_LatLon0.15_PT216H.grib2 2026-04-30 16:38 1.0M
20260430T12Z_MSC_GDPS_VerticalVelocity_IsbL-0600_LatLon0.15_PT216H.grib2 2026-04-30 16:38 1.1M
20260430T12Z_MSC_GDPS_VerticalVelocity_IsbL-0700_LatLon0.15_PT216H.grib2 2026-04-30 16:38 1.2M
20260430T12Z_MSC_GDPS_VerticalVelocity_IsbL-0850_LatLon0.15_PT216H.grib2 2026-04-30 16:38 1.3M
20260430T12Z_MSC_GDPS_WindChill_Sfc_LatLon0.15_PT216H.grib2 2026-04-30 16:38 5.3M
20260430T12Z_MSC_GDPS_WindDir_AGL-10m_LatLon0.15_PT216H.grib2 2026-04-30 16:38 1.3M
20260430T12Z_MSC_GDPS_WindDir_AGL-120m_LatLon0.15_PT216H.grib2 2026-04-30 16:38 1.3M
20260430T12Z_MSC_GDPS_WindDir_AGL-40m_LatLon0.15_PT216H.grib2 2026-04-30 16:38 1.4M
20260430T12Z_MSC_GDPS_WindDir_AGL-80m_LatLon0.15_PT216H.grib2 2026-04-30 16:38 1.4M
20260430T12Z_MSC_GDPS_WindDir_IsbL-0001_LatLon0.15_PT216H.grib2 2026-04-30 16:38 661K
20260430T12Z_MSC_GDPS_WindDir_IsbL-0005_LatLon0.15_PT216H.grib2 2026-04-30 16:38 798K
20260430T12Z_MSC_GDPS_WindDir_IsbL-0010_LatLon0.15_PT216H.grib2 2026-04-30 16:38 834K
20260430T12Z_MSC_GDPS_WindDir_IsbL-0020_LatLon0.15_PT216H.grib2 2026-04-30 16:38 927K
20260430T12Z_MSC_GDPS_WindDir_IsbL-0030_LatLon0.15_PT216H.grib2 2026-04-30 16:38 921K
20260430T12Z_MSC_GDPS_WindDir_IsbL-0050_LatLon0.15_PT216H.grib2 2026-04-30 16:38 956K
20260430T12Z_MSC_GDPS_WindDir_IsbL-0100_LatLon0.15_PT216H.grib2 2026-04-30 16:38 1.0M
20260430T12Z_MSC_GDPS_WindDir_IsbL-0150_LatLon0.15_PT216H.grib2 2026-04-30 16:38 1.0M
20260430T12Z_MSC_GDPS_WindDir_IsbL-0175_LatLon0.15_PT216H.grib2 2026-04-30 16:38 1.0M
20260430T12Z_MSC_GDPS_WindDir_IsbL-0200_LatLon0.15_PT216H.grib2 2026-04-30 16:38 1.1M
20260430T12Z_MSC_GDPS_WindDir_IsbL-0225_LatLon0.15_PT216H.grib2 2026-04-30 16:38 1.1M
20260430T12Z_MSC_GDPS_WindDir_IsbL-0250_LatLon0.15_PT216H.grib2 2026-04-30 16:38 1.1M
20260430T12Z_MSC_GDPS_WindDir_IsbL-0275_LatLon0.15_PT216H.grib2 2026-04-30 16:38 1.2M
20260430T12Z_MSC_GDPS_WindDir_IsbL-0300_LatLon0.15_PT216H.grib2 2026-04-30 16:38 1.2M
20260430T12Z_MSC_GDPS_WindDir_IsbL-0350_LatLon0.15_PT216H.grib2 2026-04-30 16:38 1.2M
20260430T12Z_MSC_GDPS_WindDir_IsbL-0400_LatLon0.15_PT216H.grib2 2026-04-30 16:38 1.3M
20260430T12Z_MSC_GDPS_WindDir_IsbL-0450_LatLon0.15_PT216H.grib2 2026-04-30 16:38 1.3M
20260430T12Z_MSC_GDPS_WindDir_IsbL-0500_LatLon0.15_PT216H.grib2 2026-04-30 16:38 1.4M
20260430T12Z_MSC_GDPS_WindDir_IsbL-0550_LatLon0.15_PT216H.grib2 2026-04-30 16:38 1.4M
20260430T12Z_MSC_GDPS_WindDir_IsbL-0600_LatLon0.15_PT216H.grib2 2026-04-30 16:38 1.5M
20260430T12Z_MSC_GDPS_WindDir_IsbL-0650_LatLon0.15_PT216H.grib2 2026-04-30 16:38 1.5M
20260430T12Z_MSC_GDPS_WindDir_IsbL-0700_LatLon0.15_PT216H.grib2 2026-04-30 16:38 1.6M
20260430T12Z_MSC_GDPS_WindDir_IsbL-0750_LatLon0.15_PT216H.grib2 2026-04-30 16:38 1.7M
20260430T12Z_MSC_GDPS_WindDir_IsbL-0800_LatLon0.15_PT216H.grib2 2026-04-30 16:38 1.8M
20260430T12Z_MSC_GDPS_WindDir_IsbL-0850_LatLon0.15_PT216H.grib2 2026-04-30 16:38 1.9M
20260430T12Z_MSC_GDPS_WindDir_IsbL-0875_LatLon0.15_PT216H.grib2 2026-04-30 16:38 1.9M
20260430T12Z_MSC_GDPS_WindDir_IsbL-0900_LatLon0.15_PT216H.grib2 2026-04-30 16:38 2.0M
20260430T12Z_MSC_GDPS_WindDir_IsbL-0925_LatLon0.15_PT216H.grib2 2026-04-30 16:38 2.0M
20260430T12Z_MSC_GDPS_WindDir_IsbL-0950_LatLon0.15_PT216H.grib2 2026-04-30 16:38 2.0M
20260430T12Z_MSC_GDPS_WindDir_IsbL-0970_LatLon0.15_PT216H.grib2 2026-04-30 16:38 2.0M
20260430T12Z_MSC_GDPS_WindDir_IsbL-0985_LatLon0.15_PT216H.grib2 2026-04-30 16:38 2.0M
20260430T12Z_MSC_GDPS_WindDir_IsbL-1000_LatLon0.15_PT216H.grib2 2026-04-30 16:38 2.0M
20260430T12Z_MSC_GDPS_WindDir_IsbL-1015_LatLon0.15_PT216H.grib2 2026-04-30 16:38 2.0M
20260430T12Z_MSC_GDPS_WindGust-Max_AGL-10m_LatLon0.15_PT216H.grib2 2026-04-30 16:38 2.2M
20260430T12Z_MSC_GDPS_WindGust-Min_AGL-10m_LatLon0.15_PT216H.grib2 2026-04-30 16:38 2.1M
20260430T12Z_MSC_GDPS_WindGust_AGL-10m_LatLon0.15_PT216H.grib2 2026-04-30 16:38 2.1M
20260430T12Z_MSC_GDPS_WindSpeed_AGL-10m_LatLon0.15_PT216H.grib2 2026-04-30 16:38 1.1M
20260430T12Z_MSC_GDPS_WindSpeed_AGL-120m_LatLon0.15_PT216H.grib2 2026-04-30 16:38 1.2M
20260430T12Z_MSC_GDPS_WindSpeed_AGL-40m_LatLon0.15_PT216H.grib2 2026-04-30 16:38 1.2M
20260430T12Z_MSC_GDPS_WindSpeed_AGL-80m_LatLon0.15_PT216H.grib2 2026-04-30 16:38 1.2M
20260430T12Z_MSC_GDPS_WindSpeed_IsbL-0001_LatLon0.15_PT216H.grib2 2026-04-30 16:38 654K
20260430T12Z_MSC_GDPS_WindSpeed_IsbL-0005_LatLon0.15_PT216H.grib2 2026-04-30 16:38 694K
20260430T12Z_MSC_GDPS_WindSpeed_IsbL-0010_LatLon0.15_PT216H.grib2 2026-04-30 16:38 625K
20260430T12Z_MSC_GDPS_WindSpeed_IsbL-0020_LatLon0.15_PT216H.grib2 2026-04-30 16:38 660K
20260430T12Z_MSC_GDPS_WindSpeed_IsbL-0030_LatLon0.15_PT216H.grib2 2026-04-30 16:38 858K
20260430T12Z_MSC_GDPS_WindSpeed_IsbL-0050_LatLon0.15_PT216H.grib2 2026-04-30 16:38 895K
20260430T12Z_MSC_GDPS_WindSpeed_IsbL-0100_LatLon0.15_PT216H.grib2 2026-04-30 16:38 1.1M
20260430T12Z_MSC_GDPS_WindSpeed_IsbL-0150_LatLon0.15_PT216H.grib2 2026-04-30 16:38 1.0M
20260430T12Z_MSC_GDPS_WindSpeed_IsbL-0175_LatLon0.15_PT216H.grib2 2026-04-30 16:38 1.0M
20260430T12Z_MSC_GDPS_WindSpeed_IsbL-0200_LatLon0.15_PT216H.grib2 2026-04-30 16:38 1.0M
20260430T12Z_MSC_GDPS_WindSpeed_IsbL-0225_LatLon0.15_PT216H.grib2 2026-04-30 16:38 1.1M
20260430T12Z_MSC_GDPS_WindSpeed_IsbL-0250_LatLon0.15_PT216H.grib2 2026-04-30 16:38 1.1M
20260430T12Z_MSC_GDPS_WindSpeed_IsbL-0275_LatLon0.15_PT216H.grib2 2026-04-30 16:38 1.1M
20260430T12Z_MSC_GDPS_WindSpeed_IsbL-0300_LatLon0.15_PT216H.grib2 2026-04-30 16:38 1.1M
20260430T12Z_MSC_GDPS_WindSpeed_IsbL-0350_LatLon0.15_PT216H.grib2 2026-04-30 16:38 1.1M
20260430T12Z_MSC_GDPS_WindSpeed_IsbL-0400_LatLon0.15_PT216H.grib2 2026-04-30 16:38 1.1M
20260430T12Z_MSC_GDPS_WindSpeed_IsbL-0450_LatLon0.15_PT216H.grib2 2026-04-30 16:38 1.1M
20260430T12Z_MSC_GDPS_WindSpeed_IsbL-0500_LatLon0.15_PT216H.grib2 2026-04-30 16:38 1.1M
20260430T12Z_MSC_GDPS_WindSpeed_IsbL-0550_LatLon0.15_PT216H.grib2 2026-04-30 16:38 1.1M
20260430T12Z_MSC_GDPS_WindSpeed_IsbL-0600_LatLon0.15_PT216H.grib2 2026-04-30 16:38 1.1M
20260430T12Z_MSC_GDPS_WindSpeed_IsbL-0650_LatLon0.15_PT216H.grib2 2026-04-30 16:38 1.5M
20260430T12Z_MSC_GDPS_WindSpeed_IsbL-0700_LatLon0.15_PT216H.grib2 2026-04-30 16:38 1.5M
20260430T12Z_MSC_GDPS_WindSpeed_IsbL-0750_LatLon0.15_PT216H.grib2 2026-04-30 16:38 1.6M
20260430T12Z_MSC_GDPS_WindSpeed_IsbL-0800_LatLon0.15_PT216H.grib2 2026-04-30 16:38 1.7M
20260430T12Z_MSC_GDPS_WindSpeed_IsbL-0850_LatLon0.15_PT216H.grib2 2026-04-30 16:38 1.7M
20260430T12Z_MSC_GDPS_WindSpeed_IsbL-0875_LatLon0.15_PT216H.grib2 2026-04-30 16:38 1.8M
20260430T12Z_MSC_GDPS_WindSpeed_IsbL-0900_LatLon0.15_PT216H.grib2 2026-04-30 16:38 1.8M
20260430T12Z_MSC_GDPS_WindSpeed_IsbL-0925_LatLon0.15_PT216H.grib2 2026-04-30 16:38 1.8M
20260430T12Z_MSC_GDPS_WindSpeed_IsbL-0950_LatLon0.15_PT216H.grib2 2026-04-30 16:38 1.8M
20260430T12Z_MSC_GDPS_WindSpeed_IsbL-0970_LatLon0.15_PT216H.grib2 2026-04-30 16:38 1.8M
20260430T12Z_MSC_GDPS_WindSpeed_IsbL-0985_LatLon0.15_PT216H.grib2 2026-04-30 16:38 1.9M
20260430T12Z_MSC_GDPS_WindSpeed_IsbL-1000_LatLon0.15_PT216H.grib2 2026-04-30 16:38 1.9M
20260430T12Z_MSC_GDPS_WindSpeed_IsbL-1015_LatLon0.15_PT216H.grib2 2026-04-30 16:38 1.8M
20260430T12Z_MSC_GDPS_WindU_AGL-10m_LatLon0.15_PT216H.grib2 2026-04-30 16:38 1.3M
20260430T12Z_MSC_GDPS_WindU_AGL-120m_LatLon0.15_PT216H.grib2 2026-04-30 16:38 1.0M
20260430T12Z_MSC_GDPS_WindU_AGL-40m_LatLon0.15_PT216H.grib2 2026-04-30 16:38 964K
20260430T12Z_MSC_GDPS_WindU_AGL-80m_LatLon0.15_PT216H.grib2 2026-04-30 16:38 1.0M
20260430T12Z_MSC_GDPS_WindU_IsbL-0001_LatLon0.15_PT216H.grib2 2026-04-30 16:38 504K
20260430T12Z_MSC_GDPS_WindU_IsbL-0005_LatLon0.15_PT216H.grib2 2026-04-30 16:38 692K
20260430T12Z_MSC_GDPS_WindU_IsbL-0010_LatLon0.15_PT216H.grib2 2026-04-30 16:38 700K
20260430T12Z_MSC_GDPS_WindU_IsbL-0020_LatLon0.15_PT216H.grib2 2026-04-30 16:38 727K
20260430T12Z_MSC_GDPS_WindU_IsbL-0030_LatLon0.15_PT216H.grib2 2026-04-30 16:38 733K
20260430T12Z_MSC_GDPS_WindU_IsbL-0050_LatLon0.15_PT216H.grib2 2026-04-30 16:38 758K
20260430T12Z_MSC_GDPS_WindU_IsbL-0100_LatLon0.15_PT216H.grib2 2026-04-30 16:38 862K
20260430T12Z_MSC_GDPS_WindU_IsbL-0150_LatLon0.15_PT216H.grib2 2026-04-30 16:38 1.0M
20260430T12Z_MSC_GDPS_WindU_IsbL-0175_LatLon0.15_PT216H.grib2 2026-04-30 16:38 1.0M
20260430T12Z_MSC_GDPS_WindU_IsbL-0200_LatLon0.15_PT216H.grib2 2026-04-30 16:38 834K
20260430T12Z_MSC_GDPS_WindU_IsbL-0225_LatLon0.15_PT216H.grib2 2026-04-30 16:38 848K
20260430T12Z_MSC_GDPS_WindU_IsbL-0250_LatLon0.15_PT216H.grib2 2026-04-30 16:38 853K
20260430T12Z_MSC_GDPS_WindU_IsbL-0275_LatLon0.15_PT216H.grib2 2026-04-30 16:38 883K
20260430T12Z_MSC_GDPS_WindU_IsbL-0300_LatLon0.15_PT216H.grib2 2026-04-30 16:38 877K
20260430T12Z_MSC_GDPS_WindU_IsbL-0350_LatLon0.15_PT216H.grib2 2026-04-30 16:38 890K
20260430T12Z_MSC_GDPS_WindU_IsbL-0400_LatLon0.15_PT216H.grib2 2026-04-30 16:38 1.1M
20260430T12Z_MSC_GDPS_WindU_IsbL-0450_LatLon0.15_PT216H.grib2 2026-04-30 16:38 1.1M
20260430T12Z_MSC_GDPS_WindU_IsbL-0500_LatLon0.15_PT216H.grib2 2026-04-30 16:38 1.1M
20260430T12Z_MSC_GDPS_WindU_IsbL-0550_LatLon0.15_PT216H.grib2 2026-04-30 16:38 1.1M
20260430T12Z_MSC_GDPS_WindU_IsbL-0600_LatLon0.15_PT216H.grib2 2026-04-30 16:38 1.1M
20260430T12Z_MSC_GDPS_WindU_IsbL-0650_LatLon0.15_PT216H.grib2 2026-04-30 16:38 1.2M
20260430T12Z_MSC_GDPS_WindU_IsbL-0700_LatLon0.15_PT216H.grib2 2026-04-30 16:38 1.2M
20260430T12Z_MSC_GDPS_WindU_IsbL-0750_LatLon0.15_PT216H.grib2 2026-04-30 16:38 1.3M
20260430T12Z_MSC_GDPS_WindU_IsbL-0800_LatLon0.15_PT216H.grib2 2026-04-30 16:38 1.4M
20260430T12Z_MSC_GDPS_WindU_IsbL-0850_LatLon0.15_PT216H.grib2 2026-04-30 16:38 1.4M
20260430T12Z_MSC_GDPS_WindU_IsbL-0875_LatLon0.15_PT216H.grib2 2026-04-30 16:38 1.5M
20260430T12Z_MSC_GDPS_WindU_IsbL-0900_LatLon0.15_PT216H.grib2 2026-04-30 16:38 1.5M
20260430T12Z_MSC_GDPS_WindU_IsbL-0925_LatLon0.15_PT216H.grib2 2026-04-30 16:38 1.5M
20260430T12Z_MSC_GDPS_WindU_IsbL-0950_LatLon0.15_PT216H.grib2 2026-04-30 16:38 1.4M
20260430T12Z_MSC_GDPS_WindU_IsbL-0970_LatLon0.15_PT216H.grib2 2026-04-30 16:38 1.4M
20260430T12Z_MSC_GDPS_WindU_IsbL-0985_LatLon0.15_PT216H.grib2 2026-04-30 16:38 1.4M
20260430T12Z_MSC_GDPS_WindU_IsbL-1000_LatLon0.15_PT216H.grib2 2026-04-30 16:38 1.4M
20260430T12Z_MSC_GDPS_WindU_IsbL-1015_LatLon0.15_PT216H.grib2 2026-04-30 16:38 1.3M
20260430T12Z_MSC_GDPS_WindV_AGL-10m_LatLon0.15_PT216H.grib2 2026-04-30 16:38 1.3M
20260430T12Z_MSC_GDPS_WindV_AGL-120m_LatLon0.15_PT216H.grib2 2026-04-30 16:38 1.0M
20260430T12Z_MSC_GDPS_WindV_AGL-40m_LatLon0.15_PT216H.grib2 2026-04-30 16:38 964K
20260430T12Z_MSC_GDPS_WindV_AGL-80m_LatLon0.15_PT216H.grib2 2026-04-30 16:38 970K
20260430T12Z_MSC_GDPS_WindV_IsbL-0001_LatLon0.15_PT216H.grib2 2026-04-30 16:38 787K
20260430T12Z_MSC_GDPS_WindV_IsbL-0005_LatLon0.15_PT216H.grib2 2026-04-30 16:38 768K
20260430T12Z_MSC_GDPS_WindV_IsbL-0010_LatLon0.15_PT216H.grib2 2026-04-30 16:38 794K
20260430T12Z_MSC_GDPS_WindV_IsbL-0020_LatLon0.15_PT216H.grib2 2026-04-30 16:38 846K
20260430T12Z_MSC_GDPS_WindV_IsbL-0030_LatLon0.15_PT216H.grib2 2026-04-30 16:38 850K
20260430T12Z_MSC_GDPS_WindV_IsbL-0050_LatLon0.15_PT216H.grib2 2026-04-30 16:38 1.0M
20260430T12Z_MSC_GDPS_WindV_IsbL-0100_LatLon0.15_PT216H.grib2 2026-04-30 16:38 1.1M
20260430T12Z_MSC_GDPS_WindV_IsbL-0150_LatLon0.15_PT216H.grib2 2026-04-30 16:38 1.0M
20260430T12Z_MSC_GDPS_WindV_IsbL-0175_LatLon0.15_PT216H.grib2 2026-04-30 16:38 1.0M
20260430T12Z_MSC_GDPS_WindV_IsbL-0200_LatLon0.15_PT216H.grib2 2026-04-30 16:38 833K
20260430T12Z_MSC_GDPS_WindV_IsbL-0225_LatLon0.15_PT216H.grib2 2026-04-30 16:38 843K
20260430T12Z_MSC_GDPS_WindV_IsbL-0250_LatLon0.15_PT216H.grib2 2026-04-30 16:38 846K
20260430T12Z_MSC_GDPS_WindV_IsbL-0275_LatLon0.15_PT216H.grib2 2026-04-30 16:38 934K
20260430T12Z_MSC_GDPS_WindV_IsbL-0300_LatLon0.15_PT216H.grib2 2026-04-30 16:38 866K
20260430T12Z_MSC_GDPS_WindV_IsbL-0350_LatLon0.15_PT216H.grib2 2026-04-30 16:38 878K
20260430T12Z_MSC_GDPS_WindV_IsbL-0400_LatLon0.15_PT216H.grib2 2026-04-30 16:38 882K
20260430T12Z_MSC_GDPS_WindV_IsbL-0450_LatLon0.15_PT216H.grib2 2026-04-30 16:38 881K
20260430T12Z_MSC_GDPS_WindV_IsbL-0500_LatLon0.15_PT216H.grib2 2026-04-30 16:38 1.1M
20260430T12Z_MSC_GDPS_WindV_IsbL-0550_LatLon0.15_PT216H.grib2 2026-04-30 16:38 1.1M
20260430T12Z_MSC_GDPS_WindV_IsbL-0600_LatLon0.15_PT216H.grib2 2026-04-30 16:38 1.1M
20260430T12Z_MSC_GDPS_WindV_IsbL-0650_LatLon0.15_PT216H.grib2 2026-04-30 16:38 1.2M
20260430T12Z_MSC_GDPS_WindV_IsbL-0700_LatLon0.15_PT216H.grib2 2026-04-30 16:38 1.2M
20260430T12Z_MSC_GDPS_WindV_IsbL-0750_LatLon0.15_PT216H.grib2 2026-04-30 16:38 1.3M
20260430T12Z_MSC_GDPS_WindV_IsbL-0800_LatLon0.15_PT216H.grib2 2026-04-30 16:38 1.3M
20260430T12Z_MSC_GDPS_WindV_IsbL-0850_LatLon0.15_PT216H.grib2 2026-04-30 16:38 1.4M
20260430T12Z_MSC_GDPS_WindV_IsbL-0875_LatLon0.15_PT216H.grib2 2026-04-30 16:38 1.4M
20260430T12Z_MSC_GDPS_WindV_IsbL-0900_LatLon0.15_PT216H.grib2 2026-04-30 16:38 1.5M
20260430T12Z_MSC_GDPS_WindV_IsbL-0925_LatLon0.15_PT216H.grib2 2026-04-30 16:38 1.4M
20260430T12Z_MSC_GDPS_WindV_IsbL-0950_LatLon0.15_PT216H.grib2 2026-04-30 16:38 1.4M
20260430T12Z_MSC_GDPS_WindV_IsbL-0970_LatLon0.15_PT216H.grib2 2026-04-30 16:38 1.4M
20260430T12Z_MSC_GDPS_WindV_IsbL-0985_LatLon0.15_PT216H.grib2 2026-04-30 16:38 1.4M
20260430T12Z_MSC_GDPS_WindV_IsbL-1000_LatLon0.15_PT216H.grib2 2026-04-30 16:38 1.4M
20260430T12Z_MSC_GDPS_WindV_IsbL-1015_LatLon0.15_PT216H.grib2 2026-04-30 16:38 1.3M